Simultaneous Nadir Overpasses (SNOs) Predictions

Prediction of SNOs between METOP-B and NOAA-19 Satellite Orbit:

Table of predicted SNOs for the next 14.0 days since TLE Epoch: 2/13/2021
Index Date (METOP-B) Time (METOP-B) Lat,Lon (METOP-B) SZA (METOP-B ) Date (NOAA-19) Time (NOAA-19) Lat,Lon (NOAA-19) SZA (NOAA-19 ) Distance(km) Time Diff (sec)
1 02/20/2021 05:26:24 -80.41, -54.80 88.04 02/20/2021 05:25:11 -80.39, -54.69 88.07 2.69 73
2 02/20/2021 06:17:04 80.40, 112.48 91.94 02/20/2021 06:16:13 80.40, 112.44 91.92 0.85 51
3 02/20/2021 07:07:46 -80.40, -80.28 88.09 02/20/2021 07:07:12 -80.40, -80.38 88.10 1.92 34
4 02/20/2021 07:58:26 80.39, 86.99 91.90 02/20/2021 07:58:13 80.39, 87.09 91.90 1.77 13
5 02/20/2021 08:49:08 -80.39,-105.76 88.13 02/20/2021 08:49:12 -80.39,-105.73 88.12 1.06 4
6 02/20/2021 09:39:48 80.38, 61.51 91.85 02/20/2021 09:40:14 80.40, 61.39 91.87 3.13 26
7 02/20/2021 10:30:30 -80.38,-131.24 88.18 02/20/2021 10:31:12 -80.39,-131.08 88.14 3.21 42
8 02/20/2021 11:21:09 80.40, 36.35 91.85 02/20/2021 11:22:13 80.38, 36.37 91.85 2.27 64



Historial Predications of SNOs between METOP-B and NOAA-19
